DW2470 Weather Reports


time (UTC)temp
F
wind
direction
speed
knots
gust
knots
rain 1hr
in
rain 24hr
in
rain mn
in
humidity
%
barometer
mb
20260904030035 63 29 1.7 0.0 0.00 0.00 0.02 77 1012.0
20260904024534 63 181 1.7 0.0 0.00 0.00 0.00 76 1011.9
20260904023033 63 56 1.7 0.0 0.00 0.00 0.00 78 1012.2
20260904021502 64 38 2.6 0.0 0.00 0.00 0.00 79 1012.1
20260904020003 64 352 1.7 0.0 0.00 0.00 0.00 80 1012.0
20260904014626 64 79 1.7 0.0 0.00 0.00 0.00 79 1012.1
20260904013100 64 89 0.9 0.0 0.00 0.00 0.00 79 1012.4
20260904011608 64 60 0.9 0.0 0.00 0.00 0.00 79 1011.5
20260904010059 64 41 0.9 0.0 0.00 0.00 0.00 79 1011.3
20260904004530 64 5 1.7 0.0 0.00 0.00 0.00 79 1011.1
20260904003029 64 31 1.7 0.0 0.00 0.00 0.00 78 1011.2
20260904001558 65 51 1.7 0.0 0.00 0.00 0.00 77 1011.0
20260904000100 65 359 2.6 0.0 0.00 0.00 0.00 75 1011.2
20260903234554 66 60 1.7 0.0 0.00 0.00 0.00 76 1011.3
20260903233053 66 33 1.7 0.0 0.00 0.00 0.00 76 1011.5
20260903231603 66 31 1.7 0.0 0.00 0.00 0.00 75 1011.6
20260903230052 67 104 0.9 0.0 0.00 0.00 0.00 73 1011.7
20260903224549 68 62 0.9 0.0 0.00 0.00 0.00 73 1011.6
20260903223059 69 90 0.9 0.0 0.00 0.00 0.00 70 1011.2
20260903221548 69 95 0.9 0.0 0.00 0.00 0.00 71 1011.4
20260903214544 70 185 1.7 0.0 0.00 0.00 0.00 67 1011.4
20260903213044 70 160 2.6 0.0 0.00 0.00 0.00 67 1011.4
20260903211544 71 109 1.7 0.0 0.00 0.00 0.00 68 1011.2
20260903210043 70 99 1.7 0.0 0.00 0.00 0.00 68 1011.4
20260903204514 70 79 1.7 0.0 0.00 0.00 0.00 66 1011.5
20260903203022 70 153 2.6 0.0 0.00 0.00 0.00 66 1011.7
20260903201514 71 99 1.7 0.0 0.00 0.00 0.00 67 1011.5
20260903200026 71 114 3.5 0.0 0.00 0.00 0.00 68 1011.4
20260903194527 70 149 3.5 0.0 0.00 0.00 0.00 66 1011.2
20260903193108 71 150 3.5 0.0 0.00 0.00 0.00 64 1011.4
20260903191508 71 152 3.5 0.0 0.00 0.00 0.00 65 1011.4
20260903190005 72 144 3.5 0.0 0.00 0.00 0.00 63 1011.4
20260903184503 72 129 3.5 0.0 0.00 0.00 0.00 64 1011.4
20260903183003 73 140 3.5 0.0 0.00 0.00 0.00 61 1011.6
20260903181636 73 146 2.6 0.0 0.00 0.00 0.00 61 1011.5
20260903180059 73 119 3.5 0.0 0.00 0.00 0.00 63 1011.7
20260903174602 73 90 2.6 0.0 0.00 0.00 0.00 62 1011.7
20260903173107 73 131 0.9 0.0 0.00 0.00 0.00 62 1011.8
20260903171600 73 24 1.7 0.0 0.00 0.00 0.00 61 1011.9
20260903170053 72 137 0.9 0.0 0.00 0.00 0.00 62 1012.1
20260903164555 72 89 1.7 0.0 0.00 0.00 0.00 63 1012.3
20260903163048 71 82 1.7 0.0 0.00 0.00 0.00 64 1012.5
20260903161600 71 110 1.7 0.0 0.00 0.00 0.00 67 1012.7
20260903160042 70 94 1.7 0.0 0.00 0.00 0.00 66 1012.8
20260903154542 70 119 1.7 0.0 0.00 0.00 0.00 70 1012.7
20260903154539 70 120 1.7 0.0 0.00 0.00 0.00 70 1012.7
20260903153037 69 153 1.7 0.0 0.00 0.00 0.00 71 1012.7
20260903151541 69 46 0.9 0.0 0.00 0.00 0.00 72 1012.8
20260903150002 68 93 0.9 0.0 0.00 0.00 0.00 74 1012.8
20260903144600 67 54 1.7 0.0 0.00 0.00 0.00 77 1012.8
20260903143054 66 47 0.9 0.0 0.00 0.00 0.00 78 1012.8
20260903141551 65 104 0.9 0.0 0.00 0.00 0.00 81 1012.7
20260903140048 63 33 0.9 0.0 0.00 0.00 0.00 85 1012.8
20260903134554 62 78 0.9 0.0 0.00 0.00 0.00 89 1012.8
20260903133017 60 4 0.9 0.0 0.00 0.00 0.00 94 1012.7
20260903131509 59 300 0.0 0.0 0.00 0.00 0.00 96 1012.8
20260903130103 57 298 0.9 0.0 0.00 0.00 0.00 97 1012.6
20260903124602 56 289 0.0 0.0 0.00 0.00 0.00 97 1012.5
20260903123055 55 289 0.0 0.0 0.00 0.00 0.00 97 1012.6
20260903121559 53 289 0.0 0.0 0.00 0.00 0.00 96 1012.4
20260903120024 53 289 0.0 0.0 0.00 0.00 0.00 95 1012.3
20260903114523 53 289 0.0 0.0 0.00 0.00 0.00 95 1012.2
20260903113049 54 289 0.0 0.0 0.00 0.00 0.00 96 1012.1
20260903111547 53 289 0.0 0.0 0.00 0.00 0.00 96 1011.9
20260903110046 53 289 0.0 0.0 0.00 0.00 0.00 96 1011.7
20260903104545 54 289 0.0 0.0 0.00 0.00 0.00 96 1011.8
20260903103045 53 289 0.0 0.0 0.00 0.00 0.00 96 1011.6
20260903101545 53 289 0.0 0.0 0.00 0.00 0.00 96 1011.8
20260903100042 53 289 0.0 0.0 0.00 0.00 0.00 96 1011.9
20260903094543 53 289 0.0 0.0 0.00 0.00 0.00 95 1011.9
20260903093043 53 289 0.0 0.0 0.00 0.00 0.00 95 1011.9
20260903091553 53 289 0.0 0.0 0.00 0.00 0.00 95 1011.9
20260903090008 53 289 0.0 0.0 0.00 0.00 0.00 95 1011.7
20260903084512 53 289 0.0 0.0 0.00 0.00 0.00 95 1011.8
20260903083037 53 289 0.0 0.0 0.00 0.00 0.00 95 1011.7
20260903081537 54 289 0.0 0.0 0.00 0.00 0.00 95 1011.8
20260903080004 54 289 0.0 0.0 0.00 0.00 0.00 95 1011.8
20260903074504 54 289 0.0 0.0 0.00 0.00 0.00 95 1011.7
20260903073115 54 289 0.0 0.0 0.00 0.00 0.00 94 1011.7
20260903071600 54 289 0.0 0.0 0.00 0.00 0.00 94 1011.7
20260903070106 55 289 0.0 0.0 0.00 0.00 0.00 94 1011.8
20260903064601 55 289 0.0 0.0 0.00 0.00 0.00 94 1011.6
20260903063113 55 289 0.0 0.0 0.00 0.00 0.00 94 1011.5
20260903061556 56 289 0.9 0.0 0.00 0.00 0.00 94 1011.6
20260903060051 56 289 0.9 0.0 0.00 0.00 0.00 94 1011.8
20260903054549 56 289 0.0 0.0 0.00 0.00 0.00 93 1011.7
20260903053048 56 289 0.0 0.0 0.00 0.00 0.00 93 1011.6
20260903051546 57 289 0.0 0.0 0.00 0.00 0.00 92 1011.5
20260903050045 57 289 0.9 0.0 0.00 0.00 0.00 93 1011.4
20260903044546 58 289 0.0 0.0 0.00 0.00 0.00 93 1011.4
20260903043055 58 289 0.0 0.0 0.00 0.00 0.00 92 1011.2
20260903041541 58 289 0.0 0.0 0.00 0.00 0.00 92 1011.2
20260903040042 58 289 0.0 0.0 0.00 0.00 0.00 91 1011.3
20260903034540 59 289 0.0 0.0 0.00 0.00 0.00 91 1011.2
20260903033036 59 289 0.0 0.0 0.00 0.00 0.00 90 1011.2
20260903031545 60 289 0.0 0.0 0.00 0.00 0.00 89 1011.3